Presure
224 219 213 205 205 215 205 203 202 213 207 194 207 202 196 205 216 229 253 216 203 206 217 205 219 192 193 177 183 172 164 178 166 170 169 165 172 166 163 159 177 174 173
221 216 217 213 213 214 201 195 201 210 200 204 207 172 209 216 245 235 243 215 197 198 211 203 223 225 191 193 183 172 164 178 169 172 142 144 167 169 168 171 182 180 180
219 95 216 111 201 205 202 206 203 211 167 213 165 171 216 208 238 233 240 211 203 203 204 199 225 220 196 191 183 183 175 174 166 166 167 168 170 167 175 169 166 167 171
216 157 128 166 158 207 153 205 128 209 204 212 151 155 208 213 240 237 240 212 203 192 191 204 219 222 192 193 184 181 185 176 177 171 161 172 170 173 164 176 154 180 181
223 219 215 217 202 209 124 201 209 216 209 184 211 184 203 224 233 243 246 207 201 194 198 202 207 214 220 194 189 184 195 178 169 174 180 176 167 167 170 142 181 179 162
230 227 221 221 218 136 158 123 218 215 209 145 223 217 195 167 216 244 250 207 204 193 195 192 201 213 215 200 186 182 206 191 176 167 165 168 175 171 165 170 166 149 183
255 239 228 223 221 219 219 212 235 186 216 215 189 228 198 226 213 239 239 213 200 199 194 191 200 207 203 219 206 193 190 197 206 175 171 169 179 172 176 184 181 189 171
268 253 245 244 240 238 198 192 130 227 213 245 228 200 171 193 225 224 243 224 200 194 193 193 209 199 203 199 213 232 223 189 191 186 182 181 179 179 182 182 180 172 180
261 251 243 239 239 238 233 211 228 178 232 160 216 220 187 211 217 232 257 237 202 202 193 188 214 195 225 203 192 208 212 208 209 204 195 188 185 183 175 174 183 188 181
251 249 242 226 234 227 226 220 226 233 228 216 215 210 217 222 223 227 240 226 211 203 197 191 198 204 190 210 194 201 192 199 201 202 203 203 198 191 193 192 191 197 195
250 236 242 235 234 230 228 177 226 227 226 241 222 217 237 227 215 245 234 241 216 204 205 195 196 202 217 199 193 213 204 193 187 185 191 191 193 192 189 184 188 169 179
219 126 231 245 237 238 238 235 230 229 236 236 226 187 228 237 231 228 231 258 226 208 199 203 187 194 202 206 226 210 185 192 192 191 193 194 193 193 192 192 191 189 187
250 255 259 254 245 246 245 254 253 236 217 227 213 180 232 238 246 231 225 279 230 221 206 197 194 195 201 213 194 214 210 240 246 253 205 205 202 200 199 196 185 183 186
285 275 262 170 257 253 250 249 237 248 237 216 226 201 241 246 224 245 256 273 235 221 206 203 197 192 196 193 200 215 210 209 209 207 219 221 218 215 213 211 206 203 198
249 288 301 268 260 255 250 254 241 229 232 246 244 236 249 235 228 233 249 272 238 223 209 202 191 194 191 191 191 194 201 204 204 204 203 203 201 203 198 194 195 196 198
382 262 237 291 288 269 258 251 245 247 242 241 251 262 262 210 225 231 261 279 248 220 210 199 198 193 194 194 195 191 194 200 191 198 197 196 195 193 184 189 188 188 195
377 241 387 409 288 311 286 271 259 220 256 264 295 278 260 241 248 257 262 281 242 215 210 204 198 196 196 192 193 171 180 190 187 191 190 184 181 194 194 193 190 192 194
337 357 373 392 421 387 302 295 285 285 287 288 265 249 238 237 236 244 271 251 233 215 213 202 205 202 203 199 197 196 187 192 183 185 183 193 194 192 189 192 194 202 202
339 344 356 371 387 411 291 293 282 285 277 285 263 252 240 226 232 249 244 243 227 219 212 216 206 205 203 199 199 190 182 191 195 195 198 190 193 206 201 204 211 219 207
321 328 332 364 231 290 293 198 279 273 215 277 241 237 237 241 231 243 223 231 227 220 215 214 212 212 211 210 206 207 194 193 201 206 211 209 204 200 208 221 214 213 218
317 329 320 338 354 369 280 289 276 265 262 260 250 240 230 233 252 236 225 225 218 221 221 214 216 215 213 211 195 181 179 178 191 198 185 200 213 224 223 218 196 224 215
308 305 310 326 334 355 266 281 272 268 264 263 249 250 243 256 244 236 229 227 221 210 203 200 193 203 214 214 185 189 219 215 227 200 209 219 216 233 210 229 215 227 222
294 295 299 309 317 333 325 267 270 267 252 252 264 232 260 243 236 229 224 218 219 217 223 212 214 221 221 209 208 211 217 228 223 218 220 208 221 222 215 219 229 212 221
293 290 298 298 306 331 312 265 258 263 244 261 236 261 248 239 229 225 227 213 208 218 222 218 217 218 222 219 215 222 227 215 206 226 226 226 214 218 216 229 221 211 216
289 287 286 293 295 259 262 264 262 262 255 271 240 245 232 238 227 224 230 222 229 225 210 204 204 219 219 223 217 218 221 228 230 220 219 225 214 226 211 216 214 231 224
295 300 287 283 288 275 267 277 262 261 259 248 262 239 240 235 223 219 219 224 227 221 213 228 224 219 226 223 223 219 224 223 213 214 221 214 213 224 238 224 230 237 222
Wind_Speed
69 71 70 65 61 63 54 52 52 48 41 39 38 37 38 40 44 44 42 44 43 44 40 43 46 43 56 49 56 52 45 48 47 51 49 50 53 52 50 47 56 53 49
69 67 66 66 64 61 56 53 50 51 44 42 39 51 45 45 46 42 41 48 46 45 42 43 45 49 57 60 58 55 47 54 53 54 32 30 56 57 57 58 59 59 56
66 26 62 32 55 55 55 53 54 54 47 48 46 51 45 47 46 42 41 52 48 45 44 45 45 49 65 56 59 65 63 60 55 55 55 57 60 59 63 57 54 56 56
69 51 44 51 49 57 35 55 30 54 50 50 36 39 45 48 46 42 43 52 50 48 46 45 45 50 60 64 63 61 67 62 63 62 52 65 63 65 60 69 46 65 67
76 73 69 70 62 59 30 56 56 55 56 55 50 52 44 44 45 45 44 56 53 50 49 48 45 53 52 67 64 59 72 66 58 66 69 69 59 59 67 32 71 68 59
80 79 75 73 71 41 47 35 62 59 57 31 52 42 44 38 48 45 43 57 54 52 50 50 52 52 56 66 65 60 65 73 69 57 56 63 70 67 62 68 61 43 71
76 82 81 76 72 71 66 61 63 51 61 55 51 36 40 52 52 47 46 57 56 54 53 51 53 53 54 53 60 68 67 68 71 71 70 67 76 74 80 83 76 75 64
60 67 70 73 75 75 58 50 37 60 57 50 45 27 47 73 58 54 48 57 59 57 54 52 54 54 54 56 50 49 61 71 69 72 74 74 77 78 80 83 82 69 80
57 65 69 69 67 65 62 54 58 44 51 39 51 51 66 70 60 55 44 54 62 61 57 53 48 56 50 56 53 46 48 53 58 67 76 78 79 80 72 74 82 87 83
61 68 70 65 68 66 63 60 57 53 50 54 52 56 50 59 55 55 46 56 62 62 58 56 53 55 55 55 51 50 52 51 54 57 62 66 73 81 81 82 85 87 87
67 65 73 74 72 70 68 47 61 60 56 54 54 56 37 59 59 44 54 55 62 64 58 57 55 53 50 54 53 53 53 56 58 58 61 64 67 74 77 78 80 66 81
50 25 70 79 77 76 74 70 65 64 63 59 55 51 49 51 51 55 58 53 59 64 59 56 58 57 51 50 43 50 57 59 59 60 65 68 70 73 76 79 81 82 85
79 75 76 79 78 77 73 65 66 65 61 62 54 45 53 51 49 53 61 51 61 60 62 60 61 59 53 49 54 50 51 40 46 55 70 73 74 76 79 81 77 79 86
82 83 79 33 78 78 75 69 66 66 70 55 61 48 57 58 54 51 52 54 62 61 63 59 58 58 56 56 53 50 53 54 56 56 50 53 57 61 65 67 70 74 78
63 74 81 82 79 79 74 72 67 66 63 68 67 66 67 53 54 59 58 56 64 62 61 58 59 60 60 60 57 57 54 54 56 57 59 62 65 66 69 73 76 76 81
43 72 57 76 89 83 79 73 67 70 68 66 67 63 55 63 65 64 62 56 63 61 64 62 64 64 63 64 62 58 56 56 60 60 63 67 69 70 67 73 75 79 86
21 21 25 28 72 80 86 82 75 52 66 63 58 49 47 55 47 44 52 55 62 65 67 67 69 69 68 65 65 51 63 65 68 69 70 69 65 74 77 79 80 86 92
22 20 23 24 26 44 72 76 76 74 66 57 50 55 55 57 51 44 43 58 65 68 71 71 72 69 71 71 71 74 71 71 68 71 67 76 76 78 76 81 86 92 92
18 15 17 20 23 26 60 65 65 61 58 54 59 60 56 61 53 51 60 64 68 73 74 76 72 74 76 76 77 70 63 71 77 77 77 72 75 82 84 87 89 90 86
18 17 19 18 32 30 54 42 61 58 44 55 60 63 63 68 61 59 57 66 70 72 75 75 74 77 78 77 76 83 78 70 78 80 82 82 79 77 85 87 85 87 94
14 14 18 17 19 25 47 54 58 55 53 54 65 68 64 65 68 67 69 72 75 79 79 77 74 76 80 82 62 46 48 53 65 69 61 74 85 86 91 92 66 94 88
19 21 20 16 20 23 47 51 55 54 53 54 64 67 67 66 69 69 73 73 75 69 69 70 64 76 85 85 56 62 88 83 83 75 83 88 85 92 82 92 88 98 92
25 26 26 25 26 26 36 50 53 55 58 59 61 63 69 73 72 74 75 76 77 77 81 79 82 87 86 82 76 81 85 86 85 87 89 76 92 95 87 86 101 80 98
30 31 30 31 29 29 39 54 59 58 61 59 64 68 75 76 75 77 80 69 63 82 86 84 85 87 80 85 85 89 90 85 73 95 95 96 86 97 93 105 101 83 96
35 36 36 37 37 51 52 56 59 58 61 63 69 70 72 78 77 77 84 81 85 84 73 65 65 86 89 89 87 90 96 97 97 94 93 99 83 104 79 93 92 120 106
39 38 42 43 42 49 54 54 61 63 65 66 74 78 80 81 75 72 76 82 85 84 74 88 88 88 94 93 94 93 96 97 77 75 90 83 84 105 116 101 114 114 100
Wind_Direction
237 240 240 241 241 246 242 247 252 258 254 248 264 266 256 262 258 252 240 229 232 239 242 234 231 232 224 231 228 237 251 241 253 251 256 263 262 270 275 280 277 278 279
236 239 241 242 244 244 240 243 251 254 246 259 259 244 269 266 268 247 238 226 232 236 241 237 231 222 224 225 229 237 250 241 252 252 265 270 269 269 273 276 277 278 281
241 266 243 261 247 241 241 246 249 251 247 257 256 250 263 257 266 245 237 228 230 233 240 235 234 221 225 231 231 233 239 243 255 259 263 266 268 274 273 278 279 282 283
240 247 258 250 253 240 241 247 232 250 248 252 247 252 249 258 261 248 236 226 232 235 238 236 237 222 233 229 235 240 238 244 246 257 270 265 271 273 278 277 279 282 282
240 241 241 244 242 241 235 246 252 249 247 237 251 243 251 258 259 250 236 228 232 234 237 239 237 226 226 237 237 242 237 242 255 257 257 262 276 279 279 279 280 282 286
238 239 241 242 243 236 243 245 253 244 243 239 252 241 245 255 249 252 238 227 231 236 236 242 241 235 230 237 246 248 237 238 247 261 266 267 270 276 275 277 278 285 285
234 238 241 241 240 242 245 244 246 241 243 244 244 229 255 253 246 253 236 223 232 236 238 243 244 241 242 237 244 248 250 246 242 251 258 265 267 271 272 276 279 284 284
231 232 233 239 241 243 246 239 241 241 236 235 231 190 242 254 246 245 238 225 230 237 240 244 243 247 243 243 243 243 243 253 252 250 254 258 261 266 272 275 279 279 279
231 229 230 233 237 240 241 240 234 234 243 250 226 217 231 232 238 244 245 230 229 233 237 243 243 250 243 244 247 243 244 248 252 252 256 256 259 263 267 271 276 278 282
228 228 229 232 234 236 239 238 241 244 234 232 231 228 237 228 234 238 241 228 225 232 234 241 244 245 252 247 251 246 248 245 247 251 254 256 259 263 267 268 270 273 276
227 227 228 232 233 236 237 234 242 244 239 240 233 232 244 231 233 247 240 233 223 229 234 235 242 245 246 252 255 250 249 252 254 255 256 258 259 261 265 271 273 286 282
241 239 226 229 233 234 236 238 240 241 245 241 235 240 226 241 235 238 239 236 225 228 232 233 241 244 248 248 247 251 256 253 256 257 258 260 262 264 266 268 271 276 279
231 229 226 230 232 234 236 234 232 229 237 239 242 248 240 244 248 237 237 242 229 226 231 233 240 244 245 246 248 244 245 244 248 248 254 258 261 264 266 269 274 279 278
235 231 230 229 230 232 232 230 229 232 230 231 239 247 242 248 231 248 247 236 227 226 229 233 240 246 247 248 248 247 249 249 249 251 255 256 259 263 266 269 271 273 276
249 238 233 231 232 233 234 232 228 233 234 237 238 239 241 239 239 234 245 235 225 226 227 231 238 243 247 250 253 257 256 257 258 260 261 263 265 269 269 272 275 279 279
270 241 240 234 231 232 234 235 237 235 235 239 241 243 237 230 232 235 236 232 222 224 227 231 235 241 245 249 252 256 259 258 260 263 264 265 266 271 279 280 282 283 281
267 240 257 260 233 228 233 234 238 245 241 241 243 227 216 219 226 234 231 223 222 224 227 231 235 239 243 248 252 268 262 258 261 261 264 272 276 271 273 277 280 280 281
255 258 261 260 252 231 225 229 234 236 235 233 218 213 218 226 223 233 219 221 225 225 228 234 236 240 242 245 248 251 257 258 267 270 276 269 269 271 277 278 278 276 279
250 256 265 255 242 233 222 220 223 225 228 221 206 211 214 227 222 233 219 221 225 227 231 233 237 240 242 245 248 258 270 263 260 261 263 270 273 270 273 276 278 280 285
233 234 234 257 236 232 215 229 216 220 242 214 217 214 220 220 221 215 226 225 230 231 235 237 239 243 245 248 252 253 260 265 265 267 266 267 272 276 278 281 284 288 288
231 226 234 227 232 226 215 212 216 220 218 215 211 218 221 219 216 211 218 225 227 232 236 239 243 245 248 250 259 273 272 272 277 277 273 280 280 284 283 285 287 287 288
212 211 215 212 214 223 209 213 217 219 215 215 216 219 220 213 213 216 222 227 232 239 244 250 261 253 251 252 265 265 262 266 268 272 275 278 280 280 287 285 292 293 298
215 214 213 207 209 213 210 210 215 216 211 213 217 221 210 213 216 219 226 234 236 240 243 246 250 251 254 261 267 268 269 271 273 275 277 282 283 286 293 293 290 300 299
209 212 209 206 208 214 207 208 212 216 217 216 217 209 210 216 221 228 227 242 249 241 244 248 252 256 259 262 267 268 270 276 282 277 278 279 287 284 291 289 296 302 301
217 215 215 210 208 220 216 212 213 214 216 214 218 213 223 220 226 232 232 240 238 242 258 265 270 257 259 260 266 268 269 269 270 273 278 278 288 287 298 298 300 290 298
219 218 215 216 212 216 214 214 216 217 218 219 215 218 220 226 235 240 241 241 242 248 257 249 255 262 260 263 265 270 271 274 279 283 285 293 295 291 285 294 293 293 302